FW4672 Weather Reports


Display with metric or nautical units.
time (UTC)temp
F
wind
direction
speed
MPH
gust
MPH
rain 1hr
in
rain 24hr
in
rain mn
in
humidity
%
barometer
mb
20260502221627 67 321 0.0 0.0 0.00 0.00 0.00 78 1031.0
20260502220628 67 326 0.0 0.0 0.00 0.00 0.00 78 1031.0
20260502212727 68 323 0.0 0.0 0.00 0.00 0.00 78 1031.4
20260502211728 69 320 0.0 0.0 0.00 0.00 0.00 77 1031.5
20260502210745 69 321 0.0 0.0 0.00 0.00 0.00 77 1031.4
20260502205729 69 320 0.0 0.0 0.00 0.00 0.00 78 1031.5
20260502204726 68 339 0.0 0.0 0.00 0.00 0.00 79 1031.4
20260502203728 67 322 0.0 0.0 0.00 0.00 0.00 79 1031.6
20260502202730 67 327 0.0 0.0 0.00 0.00 0.00 80 1031.7
20260502201729 68 317 0.0 0.0 0.00 0.00 0.00 78 1031.6
20260502200827 67 322 0.0 0.0 0.00 0.00 0.00 79 1031.6
20260502195827 66 322 0.0 0.0 0.00 0.00 0.00 80 1031.8
20260502194927 66 325 0.0 0.0 0.00 0.00 0.00 81 1032.0
20260502193930 67 323 0.0 0.0 0.00 0.00 0.00 80 1032.1
20260502193027 67 327 0.0 0.0 0.00 0.00 0.00 83 1032.1
20260502192028 65 319 0.0 0.0 0.00 0.00 0.00 85 1032.2
20260502191127 64 322 0.0 0.0 0.00 0.00 0.00 85 1032.4
20260502190129 64 316 0.0 0.0 0.00 0.00 0.00 86 1032.9
20260502185129 64 316 0.0 0.0 0.00 0.00 0.00 85 1032.8
20260502184228 65 319 0.0 0.0 0.00 0.00 0.00 86 1032.9
20260502183229 64 326 0.0 0.0 0.00 0.00 0.00 86 1032.9
20260502182228 64 322 0.0 0.0 0.00 0.00 0.00 87 1033.2
20260502181227 64 318 0.0 0.0 0.00 0.00 0.00 86 1033.3
20260502180326 64 318 0.0 0.0 0.00 0.00 0.00 86 1033.2
20260502163526 63 315 0.0 0.0 0.00 0.00 0.00 84 1033.6
20260502162528 63 329 0.0 0.0 0.00 0.00 0.00 86 1033.6
20260502161626 63 333 0.0 0.0 0.00 0.00 0.00 87 1033.5
20260502151026 62 315 0.0 0.0 0.00 0.00 0.00 89 1033.4
20260502130128 61 180 0.0 0.0 0.00 0.00 0.00 89 1032.6
20260502123129 61 180 0.0 0.0 0.00 0.00 0.00 87 1032.6
20260502122127 61 180 0.0 0.0 0.00 0.00 0.00 88 1032.5
20260502121130 61 337 0.0 0.0 0.00 0.00 0.00 89 1032.5
20260502120128 61 336 0.0 0.0 0.00 0.00 0.00 88 1032.5
20260502115128 61 180 0.0 0.0 0.00 0.00 0.00 88 1032.3
20260502114128 61 180 0.0 0.0 0.00 0.00 0.00 89 1032.3
20260502113127 61 180 0.0 0.0 0.00 0.00 0.00 87 1032.2
20260502112127 61 180 0.0 0.0 0.00 0.00 0.00 88 1032.2
20260502111128 61 180 0.0 0.0 0.00 0.00 0.00 87 1032.3
20260502110128 61 180 0.0 0.0 0.00 0.00 0.00 88 1032.3
20260502105128 61 180 0.0 0.0 0.00 0.00 0.00 88 1032.2
20260502104128 61 180 0.0 0.0 0.00 0.00 0.00 87 1032.2
20260502103127 61 307 0.0 0.0 0.00 0.00 0.00 88 1032.1
20260502102129 61 315 0.0 0.0 0.00 0.00 0.00 87 1032.2
20260502101127 61 337 0.0 0.0 0.00 0.00 0.00 88 1032.0
20260502091227 61 337 0.0 0.0 0.00 0.00 0.00 87 1032.2
20260502090227 61 337 0.0 0.0 0.00 0.00 0.00 86 1032.0
20260502071429 62 315 0.0 0.0 0.00 0.00 0.00 85 1032.9
20260502070527 62 326 0.0 0.0 0.00 0.00 0.00 85 1032.9
20260502065622 62 315 0.0 0.0 0.00 0.00 0.00 84 1032.9
20260502063621 62 315 0.0 0.0 0.00 0.00 0.00 84 1032.9
20260502062720 62 315 0.0 0.0 0.00 0.00 0.00 84 1032.8
20260502061721 62 315 0.0 0.0 0.00 0.00 0.00 84 1032.8
20260502060723 62 336 0.0 0.0 0.00 0.00 0.00 85 1032.9
20260502055723 62 315 0.0 0.0 0.00 0.00 0.00 84 1033.0
20260502054721 62 320 0.0 0.0 0.00 0.00 0.00 84 1032.9
20260502053820 62 326 0.0 0.0 0.00 0.00 0.00 84 1032.8
20260502052823 62 337 0.0 0.0 0.00 0.00 0.00 83 1033.0
20260502050822 62 315 0.0 0.0 0.00 0.00 0.00 84 1032.8
20260502045824 62 317 0.0 0.0 0.00 0.00 0.00 83 1032.9
20260502044821 62 315 0.0 0.0 0.00 0.00 0.00 84 1032.8
20260502043822 63 333 0.0 0.0 0.00 0.00 0.00 84 1032.8
20260502042822 63 335 0.0 0.0 0.00 0.00 0.00 84 1032.6
20260502041822 63 315 0.0 0.0 0.00 0.00 0.00 83 1032.8
20260502040821 62 337 0.0 0.0 0.00 0.00 0.00 83 1032.6
20260502033821 62 315 0.0 0.0 0.00 0.00 0.00 82 1032.2
20260502032823 62 337 0.0 0.0 0.00 0.00 0.00 82 1032.1
20260502031823 62 315 0.0 0.0 0.00 0.00 0.00 80 1031.9
20260502030822 63 360 0.0 0.0 0.00 0.00 0.00 80 1032.0
20260502025920 63 319 0.0 0.0 0.00 0.00 0.00 80 1032.0
20260502024921 63 316 0.0 0.0 0.00 0.00 0.00 81 1031.9
20260502023922 63 318 0.0 0.0 0.00 0.00 0.00 81 1031.8
20260502022921 63 315 0.0 0.0 0.00 0.00 0.00 81 1031.6
20260502021922 63 316 0.0 0.0 0.00 0.00 0.00 80 1031.6
20260502020922 63 320 0.0 0.0 0.00 0.00 0.00 79 1031.6
20260502015921 64 330 0.0 0.0 0.00 0.00 0.00 78 1031.5
20260502013922 65 318 0.0 0.0 0.00 0.00 0.00 77 1031.3
20260502013020 66 327 0.0 0.0 0.00 0.00 0.00 76 1031.2
20260502012021 66 321 0.0 0.0 0.00 0.00 0.00 76 1031.0
20260502011022 66 320 0.0 0.0 0.00 0.00 0.00 75 1031.0
20260502010020 66 325 0.0 0.0 0.00 0.00 0.00 75 1030.9
20260502005022 66 321 0.0 0.0 0.00 0.00 0.00 75 1030.9
20260502004020 67 317 0.0 0.0 0.00 0.00 0.00 74 1030.9
20260502003022 67 322 0.0 0.0 0.00 0.00 0.00 74 1030.8
20260502002023 67 327 0.0 0.0 0.00 0.00 0.00 73 1030.8
20260502001022 68 318 0.0 0.0 0.00 0.00 0.00 72 1030.7
20260502000120 68 318 0.0 0.0 0.00 0.00 0.00 73 1030.8
20260501234221 68 321 0.0 0.0 0.00 0.00 0.00 72 1030.8
20260501233221 69 318 0.0 0.0 0.00 0.00 0.00 70 1030.7
20260501232222 69 317 0.0 0.0 0.00 0.00 0.00 71 1030.7
20260501231223 69 321 0.0 0.0 0.00 0.00 0.00 72 1030.6
20260501230320 69 328 0.0 0.0 0.00 0.00 0.00 71 1031.0
20260501225320 69 322 0.0 0.0 0.00 0.00 0.00 70 1031.0
20260501224322 70 331 0.0 0.0 0.00 0.00 0.00 70 1031.1
20260501223321 68 320 0.0 0.0 0.00 0.00 0.00 72 1031.1
20260501222321 69 321 0.0 0.0 0.00 0.00 0.00 71 1031.3